Reflectivity
-20 -20 -7 -11 -9 -20 -20 -20 -20 -20 -20 -20 -20 -20 -20 -20 -20 -20 -20 -20 0 8 -5 10 12 5 -14 -0 17 17 -17 18 40 32 37 30 26 12 -17 -17 -20 -20 -20
-20 -20 -20 -20 -20 -20 -20 -20 -20 -20 -20 -20 -20 -20 -20 -20 -20 -20 -20 -20 -20 -19 -20 -14 -20 -19 -19 -15 8 -2 27 15 24 30 31 29 20 24 -20 -17 7 -20 -20
-20 -20 -20 -20 -20 -20 -20 -20 -20 -20 -20 -20 -20 -20 -20 -20 -20 -20 -20 -20 -20 -20 -20 -16 -20 -9 -20 -3 32 23 27 32 32 22 7 -4 28 24 -19 16 -17 -10 -19
-20 -20 -20 -20 -20 -20 -20 -20 -20 -20 -20 -20 -20 -20 -20 -20 -20 -20 -20 -20 -20 -20 -20 -20 -20 -20 -18 -20 4 -2 24 22 29 -6 8 30 13 -12 24 2 -16 3 -9
-20 -20 -20 -20 -20 -20 -20 -20 -20 -20 -20 -20 -20 -20 -20 -20 -20 -20 -20 -20 -20 -20 18 -7 -20 -20 9 -20 -1 -20 -18 23 37 25 17 11 -10 24 11 15 -2 8 -12
-20 -20 -20 -20 -20 -20 -20 -20 -20 -20 -20 -20 -20 -20 -20 -20 -20 -20 -20 -20 -20 -20 -19 -20 -15 18 14 14 9 13 14 28 38 14 11 -20 13 -20 31 2 17 1 -20
-20 -20 -20 -20 -20 -20 -20 -20 -20 -20 -20 -20 -20 -20 -20 -20 -20 -20 -20 -20 -20 -20 -20 -16 30 12 14 31 31 30 25 19 28 25 14 22 30 35 27 28 27 4 -20
-20 -20 -20 -20 -20 -20 -20 -20 -20 -20 -20 -20 -20 -20 -20 -20 -20 -20 -20 -20 -14 -18 -20 -14 -20 -19 20 13 6 9 15 18 30 -5 4 23 33 41 34 18 11 12 -11
-20 -17 5 -19 -20 -20 -20 -20 -20 -20 -20 -20 -20 -20 -20 -20 -14 -7 4 -15 4 12 12 19 24 25 28 19 3 18 23 37 37 40 35 32 35 37 33 25 11 -10 -0
-20 -20 -20 6 -17 0 -20 -20 -20 -20 -20 -20 -20 -20 4 -19 8 22 15 11 22 22 21 23 25 19 32 24 20 7 3 14 18 23 27 29 22 19 19 9 4 -8 -20
-18 -16 -20 -20 -20 -20 -20 -20 -20 -20 -13 -20 -20 -20 -20 -1 8 23 23 1 4 19 20 17 20 30 23 26 30 23 27 23 30 29 27 23 21 16 10 -7 -13 -13 -20
1 7 -20 -20 -20 -16 -18 5 2 7 -6 -20 6 21 10 14 11 21 20 16 19 4 11 13 20 26 20 21 23 25 20 21 22 22 21 15 -10 -8 -6 -19 -20 -20 -20
-13 -20 -10 -15 -19 -20 -3 -20 -3 -12 19 19 24 19 28 11 1 22 18 16 25 17 -0 17 19 18 17 17 19 26 26 22 21 19 15 -8 2 5 2 -12 -20 -20 -20
1 21 11 1 1 -6 -6 11 18 22 21 25 12 10 17 4 2 12 14 -1 11 7 14 14 20 25 26 26 24 21 18 13 10 7 -0 1 -7 -19 -15 -14 -19 -20 -20
22 21 25 24 16 19 17 24 22 25 26 28 25 15 20 13 19 25 24 14 12 12 10 14 16 19 18 16 12 -1 3 -9 -20 -20 -20 -14 -18 -20 -14 -20 -20 -20 -20
-3 21 31 24 20 21 23 22 23 20 14 14 19 13 18 17 19 20 19 17 18 20 20 19 14 11 8 8 3 -4 -7 -9 -13 -20 -6 -5 -2 -1 -2 -9 -20 -9 -2
31 33 32 28 32 28 7 -7 -6 9 14 14 19 22 25 28 27 27 28 28 27 22 17 16 18 16 11 11 11 4 1 -9 -20 1 0 1 1 1 -1 2 2 2 2
18 27 30 32 24 21 23 25 22 24 24 26 29 29 28 26 23 18 17 17 16 16 16 14 1 -0 -15 -11 -11 -9 -19 -14 4 -9 -1 2 3 4 4 2 1 3 3
-11 5 19 24 24 20 19 15 20 20 25 27 26 25 23 20 18 17 17 15 15 14 13 13 9 0 -4 -1 -1 2 2 5 -1 4 5 7 9 4 3 2 3 -8 -9
-2 -9 1 11 17 20 20 20 21 20 22 24 23 22 20 17 14 15 14 13 7 1 1 -14 -4 -1 -6 -2 -0 3 -0 -3 -2 -3 -1 2 3 6 6 4 6 6 4
-1 2 -4 4 8 8 12 12 11 12 12 13 12 12 10 7 1 -1 -6 -1 -1 -3 -5 -5 -0 -2 -3 -8 -8 -3 -2 0 0 -1 1 3 4 3 4 5 8 9 9
-9 -17 -18 -5 -6 -2 -1 0 -0 1 3 2 6 5 -2 -3 -2 -4 -1 0 1 -3 -6 -1 -3 -5 -2 -1 -1 1 -0 -1 -0 1 1 0 1 1 4 6 6 9 8
-5 -5 -6 -3 -4 -17 -3 -0 2 -1 -1 0 -2 -3 -2 -0 -3 -1 -0 2 -0 1 -2 -3 -2 -5 -3 -3 -1 -1 0 -0 -0 0 0 -0 0 2 4 3 4 9 8
-6 -11 -20 -18 -17 -3 -0 0 -20 -20 -4 -2 1 -1 1 0 2 -0 -0 -0 -2 -1 -1 -3 -2 -5 -20 -6 -0 -3 -3 -18 -5 -4 -2 2 2 -1 1 4 3 4 -0
-20 -20 -20 -6 -2 -1 -1 -2 -1 -1 0 2 2 0 -1 -1 -1 0 -1 -2 -6 -3 -2 -3 0 -4 -3 -20 -20 -9 -6 -20 -20 -20 -7 -2 -1 2 1 1 4 6 7
-20 -20 -10 -3 -3 -2 -1 0 -0 -0 1 1 1 2 1 -1 -1 0 -1 -2 -20 -20 -3 -2 -3 -6 -20 -20 -11 -20 -20 -20 -20 -20 -14 -4 -2 -2 2 4 4 3 -7
Wind_Speed
19 20 20 18 19 18 17 18 18 17 18 19 20 20 21 21 19 18 18 17 17 17 16 15 15 12 8 7 7 7 8 6 7 4 1 5 9 9 9 8 7 8 9
18 19 19 19 19 20 20 18 18 19 19 20 20 21 21 22 21 21 20 17 19 19 17 16 15 10 14 11 7 11 10 11 9 14 8 7 7 9 8 10 11 10 10
19 19 18 18 19 20 19 19 18 18 18 19 20 20 20 20 20 20 20 20 19 19 18 17 15 14 12 10 11 12 11 10 11 8 5 2 5 6 9 4 4 4 7
20 21 20 20 21 19 18 19 19 19 19 20 21 20 20 20 20 20 19 20 19 18 19 18 16 17 18 16 14 15 13 10 8 9 5 5 3 2 4 5 6 7 7
20 21 20 19 19 19 19 19 19 20 19 19 20 20 21 20 17 21 20 21 21 19 17 16 16 20 21 18 11 13 12 10 8 9 5 3 5 5 8 5 3 5 4
20 21 19 18 19 19 19 19 18 20 21 21 22 21 21 16 17 18 19 17 19 18 17 17 16 14 15 16 17 13 17 15 14 10 9 10 7 5 4 4 2 2 6
19 20 20 19 20 20 18 19 21 21 18 20 20 19 21 20 18 18 19 17 15 12 10 12 13 9 11 10 4 11 15 14 8 4 6 3 3 3 4 3 2 3 4
19 18 18 19 20 19 19 20 20 18 19 18 19 19 18 17 14 16 16 15 16 18 18 15 12 8 7 9 11 12 11 12 10 8 10 9 8 6 4 2 2 4 5
16 17 18 18 19 18 20 20 18 17 16 16 15 16 16 16 9 13 12 9 2 5 5 5 6 7 13 20 15 14 11 9 13 16 19 14 13 9 7 1 2 4 5
12 14 16 15 17 17 16 16 14 13 13 9 5 6 11 4 6 3 8 6 7 6 7 8 11 12 16 12 11 11 11 8 9 8 5 7 5 6 2 3 2 4 5
13 11 8 10 14 14 13 12 12 7 8 8 9 8 8 8 8 9 8 7 8 7 7 8 7 18 19 19 16 10 10 10 6 5 6 2 2 3 3 4 4 4 6
11 11 12 12 9 8 8 9 8 8 9 9 9 8 7 7 15 13 15 16 14 11 10 9 11 22 22 20 15 19 16 10 6 4 1 1 1 1 3 3 4 5 7
13 12 11 11 11 10 8 8 7 6 6 6 6 9 6 6 11 21 21 22 21 13 10 18 23 23 23 18 19 15 8 5 4 3 1 1 2 3 5 5 6 8 10
14 14 12 12 11 12 9 7 7 5 6 6 6 8 7 5 7 8 9 13 20 16 17 11 12 14 12 10 8 6 5 5 4 3 1 2 3 3 5 5 6 7 8
12 12 11 10 11 12 14 9 8 9 6 7 7 8 7 7 6 14 11 8 9 12 11 9 7 7 7 6 6 5 5 3 3 3 4 4 4 5 5 6 6 7 9
9 9 9 8 8 9 10 13 26 24 26 26 21 16 12 18 24 25 25 21 15 10 7 7 7 6 6 6 5 4 4 4 4 4 4 4 5 6 7 7 7 8 9
11 8 6 8 10 10 9 10 13 20 28 26 26 24 25 22 24 23 21 18 10 8 8 7 7 7 7 7 6 5 4 4 2 3 4 5 6 7 8 8 8 8 9
11 14 7 10 9 10 9 9 8 10 11 12 21 19 23 21 20 18 16 12 9 10 9 8 8 7 6 6 5 5 5 5 5 5 6 6 6 7 8 8 9 9 10
10 9 10 9 9 11 9 9 9 9 10 10 8 11 13 20 22 22 20 9 9 8 8 8 8 7 7 6 5 4 4 4 4 4 5 6 7 7 9 9 9 11 11
12 17 13 9 10 9 9 9 9 9 9 8 8 6 7 9 9 9 9 8 8 8 8 8 7 7 6 5 5 5 5 6 6 6 7 7 7 8 8 9 9 9 10
10 11 16 11 11 10 8 9 9 9 9 9 9 10 15 9 9 9 8 8 8 8 7 6 6 5 5 5 6 6 6 6 6 7 7 7 7 8 8 8 9 9 9
10 10 10 10 9 10 9 9 9 9 9 9 8 10 13 8 7 8 7 7 7 8 7 6 6 6 6 6 6 6 6 6 6 7 7 7 8 8 8 8 8 9 9
10 11 10 10 10 11 10 9 9 9 9 8 8 7 7 7 7 7 7 7 7 6 6 6 5 5 6 6 5 6 6 6 7 7 7 7 8 8 8 8 9 9 9
10 10 10 9 9 9 8 8 8 10 8 7 7 7 6 6 6 6 6 6 6 5 5 5 4 5 6 5 5 6 6 7 7 7 9 8 8 9 8 9 9 11 10
9 9 9 9 8 8 8 8 7 7 7 7 7 6 6 5 5 6 6 5 4 5 5 4 4 5 5 7 7 8 7 10 9 10 8 9 10 11 10 9 10 10 11
10 10 8 7 7 8 7 7 7 7 7 6 6 5 5 5 6 5 4 5 5 5 5 4 5 7 8 7 7 9 9 10 9 9 7 8 8 8 8 10 11 9 12
Wind_Direction
196 196 201 205 205 208 213 211 206 200 199 202 202 207 210 215 220 226 230 233 235 235 233 236 243 235 234 231 233 223 220 224 247 255 330 224 192 195 158 199 206 220 219
200 201 200 202 211 209 212 214 212 209 206 207 209 208 213 215 218 223 230 231 232 237 238 238 230 229 234 222 212 212 220 216 203 230 199 196 192 186 176 194 214 222 229
204 205 205 205 208 211 214 214 213 216 217 218 218 223 225 224 227 229 231 233 235 238 240 239 225 222 217 214 218 224 220 219 214 214 189 180 203 176 215 200 222 248 252
206 209 208 207 209 210 211 213 214 218 218 222 220 225 226 230 233 235 235 235 238 239 241 238 229 219 224 220 217 221 220 215 206 198 181 169 165 150 172 180 199 220 233
212 214 215 207 211 213 213 211 214 214 218 221 224 225 228 228 230 232 235 237 240 240 239 236 233 235 232 229 216 217 211 208 189 194 189 149 180 164 186 173 186 229 230
216 219 215 213 210 214 212 211 213 217 216 216 219 221 224 228 227 218 232 237 233 232 230 229 231 236 236 227 222 208 195 188 200 197 200 201 180 154 152 170 176 197 235
215 221 217 213 214 212 212 213 215 216 216 222 225 225 228 228 216 208 209 228 237 239 223 228 235 227 219 216 151 83 60 61 63 195 162 92 78 140 118 152 170 245 245
223 220 220 217 216 210 211 217 218 214 216 218 221 223 226 229 209 205 206 225 235 236 244 241 221 193 176 138 115 93 76 65 47 64 80 73 44 30 50 55 325 294 320
222 229 225 217 217 214 211 213 214 215 216 217 219 223 228 234 184 189 188 211 126 56 42 57 110 109 124 133 123 117 108 88 76 73 85 72 82 59 48 34 213 236 254
261 222 228 226 226 225 223 216 211 211 216 209 135 59 35 23 7 243 151 123 111 99 76 74 90 114 128 132 120 121 112 112 114 88 72 102 120 105 91 267 259 251 263
328 302 269 242 228 228 225 221 212 157 102 78 75 56 65 75 58 77 104 108 117 103 93 85 83 98 98 93 87 90 101 109 85 101 115 115 159 164 188 197 238 257 261
360 23 32 34 35 33 73 73 73 88 92 89 84 67 42 53 80 77 90 99 111 109 104 98 94 92 86 83 86 100 95 102 101 131 123 141 186 245 254 253 275 283 279
17 22 33 43 43 42 66 84 71 66 100 113 114 103 74 70 80 89 96 99 99 97 100 101 96 90 89 84 85 83 84 93 124 124 116 336 308 331 325 299 282 283 281
37 23 23 34 37 40 41 25 80 91 98 101 106 93 105 86 82 95 93 96 97 98 101 94 88 89 85 94 97 84 71 54 51 51 352 319 335 309 290 297 298 299 294
61 40 29 38 49 55 51 35 45 31 68 104 95 98 99 82 88 90 96 96 98 100 105 105 106 108 111 108 100 107 119 108 62 43 359 340 321 310 304 307 300 303 294
67 67 67 42 47 52 61 67 61 71 75 78 83 95 89 96 89 91 91 88 96 109 103 101 97 94 99 103 98 94 87 68 52 17 344 323 317 319 319 316 305 291 292
55 73 60 64 83 64 53 63 77 64 68 75 79 84 89 93 92 91 85 79 63 72 71 68 70 69 69 66 63 54 52 56 12 346 348 335 330 323 317 307 303 298 295
55 58 69 73 74 75 73 69 63 80 75 67 63 79 78 83 89 97 105 97 80 69 76 78 76 75 72 67 57 42 32 18 17 4 341 326 316 311 307 305 308 310 309
54 58 55 66 69 75 75 77 78 77 83 82 78 70 72 70 61 56 56 63 70 70 75 72 69 68 61 55 55 47 17 1 342 318 328 327 334 324 314 312 311 311 310
49 52 60 55 60 63 67 66 65 63 60 58 57 63 65 65 64 59 56 61 66 61 62 67 60 55 46 34 15 4 348 346 342 340 338 328 324 320 317 311 309 311 307
50 52 59 55 57 66 70 72 68 71 69 57 53 49 54 62 63 59 61 57 58 56 47 40 46 40 26 20 8 360 351 345 341 338 329 328 328 319 311 303 306 309 306
55 59 61 66 67 69 71 70 77 78 81 82 77 62 57 63 67 66 60 59 53 49 31 33 23 25 30 15 358 353 348 340 336 343 335 329 319 314 310 308 311 312 310
50 53 55 57 60 60 57 58 65 70 70 65 64 61 58 53 47 55 56 47 51 48 42 30 12 20 23 10 352 350 338 340 343 338 327 318 310 309 315 314 305 303 309
46 55 63 59 47 59 64 69 71 59 65 66 66 65 61 57 57 62 53 43 29 27 31 26 5 13 13 346 353 342 331 350 342 323 312 304 308 313 311 310 308 306 301
50 55 54 52 51 56 61 59 59 62 59 56 55 48 47 43 46 37 37 33 25 13 8 349 4 354 352 348 318 309 346 3 332 320 299 293 294 301 295 290 291 296 303
47 47 48 49 49 48 53 56 52 50 46 45 42 35 26 19 30 9 16 25 13 336 331 351 334 345 335 316 331 13 349 320 304 301 294 289 288 286 288 293 307 311 304